Погода Скулте

Погода Скулте : погода сейчас, прогноз погоды и архив. Всё, что Вы хотите узнать о погоде Скулте!

Поиск расширенной информации на нашем сайте:

Другие новости

Новости СМИ2

Главная страница сайта

Новости сайта

03.07.2017

Напоминаем, что на нашем специализированном сайте Метеоцентр.Азия вы можете получить высокодетализированные автоматические прогнозы погоды по пунктам России, СНГ и мира в авиационном формате (включающие направление и скорость ветра, видимость, явления погоды, количество и форму облачности, нижнюю и верхнюю границу облачности).


Погода Скулте - сегодня

Время (UTC), дата Ветер
(°,м/с) 
Видим.   Явления Облачность Т
(°С)
Тd
(°С)
f(%) Тe
(°С)
Pmin
(гПа)
dP
(гПа)
Po
(мм)
O2
(г/м3)
Тmin Tmax R s Состояние
почвы
15 06.02.18 170 (Ю) 3-5  н/о    н/о 
-5.4 -8.1 81 -8  1011.4  -0.2  758  312           
18 06.02.18 160 (Ю) 3-6  н/о    н/о 
-5.6 -7.3 88 -8  1011.4  758  313           
21 06.02.18 190 (Ю) 3-6  н/о    н/о 
-3 -4.3 91 -5  1011.7  0.3  758  309           
00 07.02.18 230 (ЮЗ) 7-11  н/о    н/о 
-2 -3.1 92 -6  1012.8  1.1  759  308           
03 07.02.18 230 (ЮЗ) 6-10  н/о    н/о 
-1.7 -5 78 -5  1014  1.2  760  309           
06 07.02.18 230 (ЮЗ) 5-10  н/о    н/о 
-1.9 -5.6 76 -5  1015.3  1.3  761  309           
09 07.02.18 210 (ЮЗ) 5-9  н/о    н/о 
-2.3 -4.7 84 -6  1017.2  1.9  762  310           
12 07.02.18 210 (ЮЗ) 5-9  н/о    н/о 
-1.3 -4.1 81 -5  1018  0.8  763  309           
15 07.02.18 200 (Ю) 4-9  н/о    н/о 
-1.2 -4.5 78 -4  1019.2  1.2  764  310           
18 07.02.18 170 (Ю) 4-6  н/о    н/о 
-3.1 -6.4 78 -6  1020.6  1.4  765  312           
21 07.02.18 170 (Ю) 3-7  н/о    н/о 
-5.2 -8.7 76 -8  1021.7  1.1  766  315           
00 08.02.18 150 (ЮВ) 3-5  н/о    н/о 
-6.8 -11.3 70 -9  1022.2  0.5  766  318           
03 08.02.18 150 (ЮВ) 3-6  н/о    н/о 
-9.4 -12.2 80 -12  1021.9  -0.3  766  321           
06 08.02.18 130 (ЮВ) 2-4  н/о    н/о 
-11.5 -12.9 89 -13  1022.2  0.3  766  323           
09 08.02.18 130 (ЮВ) 3-5  н/о    н/о 
-11.8 -13.6 86 -15  1022.7  0.5  766  324           
15 08.02.18 170 (Ю) 1-2  н/о    н/о 
-7.7 -8.9 91 -7  1022.2  -0.2  766  319           
18 08.02.18 120 (ЮВ) 1-3  н/о    н/о 
-7.2 -8.1 93 -7  1022  -0.3  766  318           
21 08.02.18 180 (Ю) 2-2  н/о    н/о 
-7.3 -8.1 94 -9  1022.2  0.2  766  318           
00 09.02.18 110 (В) 1-2  н/о    н/о 
-7 -7.8 94 -7  1022.3  0.2  766  318           
03 09.02.18 120 (ЮВ) 1-2  н/о    н/о 
-6.7 -7.5 94 -6  1022.5  0.2  766  317           
06 09.02.18 090 (В) 1-2  н/о    н/о 
-6.4 -7.2 94 -6  1022.5  766  317           
09 09.02.18 090 (В) 2-3  н/о    н/о 
-7.2 -8 94 -9  1023.1  0.6  767  318           
12 09.02.18 050 (СВ) 1-2  н/о    н/о 
-8 -9.2 91 -8  1023.4  0.3  767  319           
15 09.02.18 080 (В) 1-2  н/о    н/о 
-8.8 -10 91 -9  1022.9  -0.4  766  320           
09 22.02.18 100 (В) 2-4  н/о    н/о 
-10.7 -13.6 79 -13  1032.3  0.5  773  326           
Время (UTC), дата Ветер
(°,м/с) 
Видим.   Явления Облачность Т
(°С)
Тd
(°С)
f(%) Тe
(°С)
Pmin
(гПа)
dP
(гПа)
Po
(мм)
O2
(г/м3)
Тmin Tmax R s Состояние
почвы

Для получения пояснительной информации подведите курсор к названию столбца.

ПОГОДА Скулте - архив

Всё, что Вы хотите узнать о погоде Скулте - удобно и подробно!

Выберите нужную дату (начиная с 1 января 2015* года) и нажмите кнопку "Найти".
Будут отображены архивные сводки погоды по пункту Скулте, начиная с указанной даты.


Отображать данные в формате CSV (для использования в таблицах Excel)


Внимание! Наш архив погоды предназначен исключительно для личного некоммерческого использования в познавательных целях. Если Вам необходимы официальные справки о состоянии погоды (для производственных, юридических, коммерческих и т.п. целей), обращайтесь в органы Росгидромета.

*Примечание: данная дата относится к архиву по метеостанциям СССР (Россия, СНГ, Балтия).
Архив по метеостанциям Зарубежной Европы и Азии (кроме Китая) хранится 10 дней, по другим регионам земного шара (Китай, Африка, Америка, Австралия, Океания) - 1 день.

Скулте - район местоположения метеостанции


Название, широта, долгота, высота метеостанции:
Скулте 57.3°ш. 24.4°д. 10 м над ур. моря [Латвия]

Дополнительная информация

В oтличие oт бoльшинства пoгoдных сайтoв мы публикуем пoдрoбную метеoинфoрмацию в детальнoм прoфессиoнальнoм фoрмате.

Характеристики температуры и влажнoсти вoздуха измеряются на высoте 2 м в тени вдали oт зданий и деревьев.
Скoрoсть ветра измеряется на высoте 10 м (на урoвне рoста челoвека скoрoсть ветра ниже в 1.5-2 раза). Если метеoстанция нахoдится в гoрoде или в лесу, тo скoрoсть ветра занижена на 2-4 м/с пo сравнению с oткрытым местoм. Скoрoсть ветра над акватoриями крупных рек и oзёр, а также на вершинах хoлмoв на 2-5 м/с выше, чем в oбычных услoвиях.
Атмoсфернoе давление в разных тoчках местнoсти мoжет значительнo oтличаться oт давления на метеoстанции, в зависимoсти oт услoвий рельефа (при пoдъёме на 10 м давление пoнижается примернo на 1 мм рт.ст.).